Regional Weather Roundup
Issued by NWS

Home | Current Version | Previous Version | Text Only | Print | Product List | Glossary On
Versions: 1 2 3 4 5 6 7 8 9 10 11 12 13 14 15 16 17 18 19 20 21 22 23 24 25 26 27 28 29 30 31 32 33 34 35 36 37 38 39 40 41 42 43 44 45 46 47 48 49 50
000
ASUS46 KLOX 282112
RWRCA

SOUTHERN CALIFORNIA WEATHER ROUNDUP
NATIONAL WEATHER SERVICE OXNARD CALIFORNIA
100 PM PST SAT FEB 28 2015

NOTE: "FAIR" INDICATES FEW OR NO CLOUDS BELOW 12,000 FEET WITH NO
SIGNIFICANT WEATHER AND/OR OBSTRUCTIONS TO VISIBILITY.

  -  STATIONS PRECEEDED BY AN ASTERISK (*) ARE NOT NWS OR FAA
     STATIONS AND ARE NOT SUBJECT TO NWS AND FAA QUALITY CONTROL.

CAZ041-042-087-282200-
LA AND ORANGE COUNTY COASTAL AREAS


CITY           SKY/WX    TMP DP  RH WIND       PRES   REMARKS
L.A. DOWNTOWN  MOSUNNY   63  46  54 CALM      29.85F
L.A. AIRPORT   PTSUNNY   61  46  57 SW16      29.86F
LONG BEACH     CLOUDY    63  45  51 W8        29.86F

CITY           SKY/WX    TMP DP  RH WIND       PRES   REMARKS
AVALON           N/A     61 N/A N/A MISG        N/A
FULLERTON      PTSUNNY   65  43  44 S13       29.84F
*GETTY CENTER    N/A    N/A N/A N/A SW16G24     N/A
HAWTHORNE      MOSUNNY   61  45  55 SW12G20   29.86F
*LEO CARRILLO    N/A     65  47  53 W10         N/A
*LOS ALAMITOS  PTSUNNY   64  47  53 SW12G18   29.86F
*REDONDO BEACH   N/A     65  48  54 S6        29.87F
SANTA ANA      PTSUNNY   65  44  46 SW9       29.87F
STA MONICA APT MOSUNNY   62  45  53 SW16      29.85F
TORRANCE       PTSUNNY   63  48  59 W16       29.87F
*UCLA            N/A     59  45  58 SW18G26   29.81F

$$

CAZ547-548-048-282200-
LA COUNTY VALLEYS AND INLAND EMPIRE


CITY           SKY/WX    TMP DP  RH WIND       PRES   REMARKS
BURBANK        LGT RAIN  59  40  49 S13       29.83F
VAN NUYS       PTSUNNY   61  40  45 SE6       29.82F

CITY           SKY/WX    TMP DP  RH WIND       PRES   REMARKS
CORONA AIRPORT CLOUDY    61  42  49 SW8       29.86F
*CHATSWORTH      N/A     64  42  44 NW9       29.82F
CHINO          CLOUDY    63  43  48 SW15G22   29.85F
MARCH AFB      CLOUDY    57  42  57 NW5       29.84F
*NORTHRIDGE      N/A     59  37  44 S3G10       N/A
ONTARIO        PTSUNNY   60  42  51 SW13G23   29.84F
*PASADENA        N/A     61  41  48 E5          N/A
POMONA         PTSUNNY   57  41  54 W12       29.87F
RIVERSIDE      CLOUDY    62  42  47 SW15G21   29.85F
SAN BERNARDINO CLOUDY    54  45  71 SW6       29.86F
*SAN GABRIEL     N/A     62  39  43 CALM      29.82F
*SAN RAFAEL HI   N/A     58  40  51 E6          N/A
*SAUGUS          N/A     57  41  55 S12G23      N/A
*WHITEMAN AP   PTSUNNY   59  37  44 SE5       29.85F
*WOODLAND HILL   N/A     63  39  42 W3          N/A

$$

CAZ054-055-282200-
LA AND SAN BERNARDINO COUNTY MOUNTAINS


CITY           SKY/WX    TMP DP  RH WIND       PRES   REMARKS
*BIG BEAR AIRP LGT SNOW  32  30  93 W21       29.80R WCI  20
MT WILSON NWS    N/A     36  37 100 SW12        N/A  WCI  27
SANDBERG       PTSUNNY   45  34  65 S23G29    29.77F

$$

CAZ028-029-059-060-099-282200-
ANTELOPE VALLEY AND SURROUNDING AREAS


CITY           SKY/WX    TMP DP  RH WIND       PRES   REMARKS
LANCASTER      MOSUNNY   55  33  43 SW20G30   29.78F
PALMDALE       SUNNY     56  33  42 SW20      29.78F
*POPPY PARK      N/A     56  36  47 SW20G32     N/A

CITY           SKY/WX    TMP DP  RH WIND       PRES   REMARKS
29 PALMS       MOSUNNY   61  33  35 SW29G37   29.82F
BARSTOW/DAGGET MOSUNNY   62  29  28 SW30G41   29.74F
BISHOP         PTSUNNY   57   7  13 NW12G17     N/A
CHINA LAKE     SUNNY     59  23  25 SW29G37   29.68S
EDWARDS AFB    PTSUNNY   58  32  36 SW21G28   29.75F
MOJAVE         PTSUNNY   54  28  37 W12       29.77F
NEEDLES        PTSUNNY   70  27  20 S18G25    29.72F
VICTORVILLE    MOSUNNY   57  23  26 SW13G22   29.78R

$$

CAZ039-040-282200-
VENTURA AND SANTA BARBARA COUNTY COAST


CITY           SKY/WX    TMP DP  RH WIND       PRES   REMARKS
CAMARILLO      MOSUNNY   64  41  42 SW14      29.83F
OXNARD AIRPORT SUNNY     64  44  48 W20       29.83F
*POINT MUGU    PTSUNNY   61  45  55 W15       29.84F
SBA APT/GOLETA MOSUNNY   61  47  59 W17       29.83F
*SANTA BARBARA   N/A     64  46  52 CALM      29.91S
*VENTURA         N/A     64  43  45 SW6       29.87S

$$

CAZ044-045-282200-
VENTURA COUNTY VALLEYS


CITY           SKY/WX    TMP DP  RH WIND       PRES   REMARKS
*SIMI VALLEY     N/A     60  42  51 SW7       29.80F
*OJAI            N/A     62  46  56 CALM      29.77F
*FILLMORE        N/A     65  45  47 SW6       29.71F

$$

CAZ053-282200-
VENTURA COUNTY MOUNTAINS


CITY           SKY/WX    TMP DP  RH WIND       PRES   REMARKS
*LOCKWOOD VLY    N/A     41  30  65 MISG        N/A
*ROSE VALLEY     N/A     46  41  81 MISG        N/A

$$

CAZ034-035-036-282200-
CENTRAL COAST AND SANTA YNEZ VALLEY


CITY           SKY/WX    TMP DP  RH WIND       PRES   REMARKS
SAN LUIS OBISP LGT RAIN  53  49  86 S3        29.83F
SANTA MARIA    PTSUNNY   62  42  47 SW9       29.83F

CITY           SKY/WX    TMP DP  RH WIND       PRES   REMARKS
*CAL POLY SLO    N/A     57  52  82 W1G7        N/A
*LOMPOC        PTSUNNY   63  45  51 W15       29.85S
*PISMO BEACH     N/A     60  49  68 SW13      29.84F
*SANTA YNEZ    LGT RAIN  55  45  67 NW5       29.83F

$$

CAZ037-038-051-282200-
SAN LUIS OBISPO COUNTY INTERIOR AND CUYAMA VALLEY


CITY           SKY/WX    TMP DP  RH WIND       PRES   REMARKS
*CUYAMA          N/A     53  39  58 CALM      29.78F
PASO ROBLES    PTSUNNY   58  40  51 MISG      29.79F

$$

CAZ032-033-061-282200-
SOUTHERN DESERTS


CITY           SKY/WX    TMP DP  RH WIND       PRES   REMARKS
BLYTHE         MOSUNNY   73  38  27 SW23      29.77F
IMPERIAL       LGT RAIN  72  40  31 W29G36    29.78F
PALM SPRINGS   MOSUNNY   67  36  31 NW15G26   29.78F
THERMAL        MOSUNNY   70  33  25 W23G35    29.75F HAZE

$$

ELSEWHERE ACROSS THE WESTERN UNITED STATES AND MEXICO


CITY           SKY/WX    TMP DP  RH WIND       PRES   REMARKS
DENVER, CO     PTSUNNY   18  10  71 N8        29.93F WCI   8
GRAND CANYON,  LGT RAIN  36  33  89 SW20G29   29.76F WCI  25
HONOLULU, HI   PTSUNNY   79  64  61 N10G18    29.96F
KAHULUI, MAUI  LGT RAIN  73  70  88 E8        29.98R
LAKE TAHOE, CA LGT SNOW  33  26  75 NE5       29.71S WCI  29
LAS VEGAS, NV  MOSUNNY   61  26  26 SW21G28   29.66S
MAMMOTH LAKES, FAIR      39   7  26 S17G24    29.67S WCI  30
MEXICO CITY, M MOSUNNY   77  32  19 SE6       30.23F
PHOENIX, AZ    CLOUDY    67  44  43 W7        29.81F
PORTLAND, OR   SUNNY     55  27  34 E13G22    30.13S
RENO, NV       LGT SNOW  37  34  89 NW8       29.77R FOG     WCI  31
SALT LAKE CITY CLOUDY    44  21  40 SE10      29.68F
SAN DIEGO, CA  PTSUNNY   62  43  49 VRB5      29.91F
SAN FRANCISCO, MOSUNNY   58  46  64 NE5       29.80S
SAN JOSE, CA   PTSUNNY   58  40  51 S3        29.79F
SEATTLE, WA    MOSUNNY   51  25  36 N17G23    30.19F
TIJUANA, MEX   PTSUNNY   61  45  55 W15       29.93F

$$

STATION/POSITION TIME  TEMP    WIND        PRES    VSBY  WAVE
                       AIR SEA DIR/SP/G                  HT/PER
                 (UTC) (F)     (DEG/KT/KT) (MB)    (MI)  (FT/S)
POINT ARGUELLO B NOT AVBL
WEST SANTA BARBA 2100   56 59  240/  4/  6 1010.5F         6/ 8
POINT CONCEPTION NOT AVBL
EAST SANTA BARBA NOT AVBL
SANTA MONICA BAY 2100   57 62  240/ 12/ 16 1011.3F         3/14


USA.gov is the U.S. government's official web portal to all federal, state and local government web resources and services.